Dewpoint
62 70 77 76 76 75 75 75 75 76 76 75 75 75 74 74 74 74 74 74 74 72 73 73 73 72 73 73 73 73 74 74 74 74 74 74 74 74 74 73 73 65 73
64 70 77 77 77 76 75 76 75 76 76 75 75 75 75 74 74 73 74 74 74 73 73 74 74 74 74 74 74 74 74 73 73 73 74 73 71 72 70 70 73 72 73
65 69 73 77 77 76 76 76 76 76 76 75 75 75 74 74 75 74 74 74 73 74 73 74 74 74 74 74 74 73 73 73 74 73 74 65 69 72 73 70 71 72 73
64 68 70 77 77 76 76 76 76 75 75 75 75 75 75 75 74 73 74 73 74 74 74 74 74 74 73 74 73 74 73 72 72 73 70 60 64 73 73 73 73 73 72
64 66 71 77 77 75 75 76 76 76 75 75 74 75 75 75 73 74 74 74 73 73 73 74 73 73 73 73 73 73 72 73 73 71 62 61 62 72 73 73 73 73 72
63 63 75 77 76 75 75 76 76 76 76 75 74 74 74 74 74 74 74 74 73 72 72 73 72 72 73 74 74 74 73 73 73 64 62 64 67 72 73 71 70 71 72
62 69 71 77 77 77 76 75 76 75 75 75 75 75 75 75 74 74 74 74 73 72 72 74 73 74 73 74 73 72 71 71 70 63 62 66 71 74 73 71 72 71 72
62 68 70 76 77 77 75 75 75 76 75 75 74 74 75 75 74 74 74 74 73 72 72 74 73 73 73 73 72 71 70 71 64 62 63 70 73 74 73 73 73 73 72
62 67 70 72 74 75 75 75 75 75 75 75 74 74 75 74 74 74 75 74 74 73 73 73 73 73 73 73 72 72 72 73 71 61 61 68 74 71 71 73 73 71 70
68 69 70 72 72 73 72 76 75 75 74 74 73 74 74 75 74 74 74 74 74 72 73 74 73 73 73 72 72 72 72 73 68 60 61 68 74 71 71 72 73 73 71
65 71 73 75 73 73 73 72 75 75 74 74 74 74 74 68 71 72 73 75 74 72 73 74 73 73 72 72 72 72 72 65 63 59 63 75 75 73 73 73 71 71 71
66 66 70 73 73 74 70 75 72 72 72 72 72 73 77 75 71 70 72 74 73 72 73 74 74 73 72 66 67 71 66 66 59 59 66 74 74 73 73 73 73 72 71
66 66 70 72 75 73 73 73 72 74 71 74 75 77 77 76 75 69 73 71 73 71 68 71 71 69 66 65 64 63 64 61 62 60 70 73 74 72 73 74 74 73 72
65 67 70 72 74 74 72 71 69 69 70 70 73 77 76 74 75 77 75 68 73 70 67 68 65 66 65 65 65 64 67 61 59 63 71 75 74 73 73 73 75 74 73
66 66 71 73 75 76 75 70 71 73 71 70 74 75 73 75 76 73 75 74 70 69 68 68 67 67 69 69 65 66 64 67 64 63 70 75 74 75 74 74 74 74 74
65 66 70 72 74 74 74 77 73 70 72 69 71 72 75 71 73 72 72 70 73 72 68 70 68 67 67 66 66 66 66 66 65 67 64 71 76 76 75 75 75 75 75
65 67 67 71 73 74 74 74 72 72 68 67 68 74 74 75 77 74 68 72 67 72 76 76 75 70 66 65 66 66 65 66 64 66 65 69 71 76 76 76 76 76 76
65 69 69 67 71 73 74 74 71 70 69 70 67 69 75 73 73 74 72 68 71 74 73 71 70 68 69 66 68 64 65 66 68 67 66 70 69 70 75 76 76 75 76
68 71 71 71 70 73 74 72 73 74 71 67 68 65 74 73 72 72 70 73 75 74 73 74 71 72 71 68 67 68 69 65 66 63 66 69 71 67 71 75 75 75 75
67 70 72 72 74 75 73 74 69 68 68 69 69 68 75 71 71 72 69 74 75 75 75 73 72 70 71 75 67 66 70 68 69 68 67 69 71 73 72 74 75 73 75
67 72 73 74 76 72 70 69 68 65 70 70 68 73 74 73 73 74 70 71 76 73 72 74 75 73 70 73 74 68 72 70 69 66 66 68 70 70 73 74 75 73 73
68 72 73 74 77 74 70 71 68 68 66 69 71 72 73 72 74 73 73 73 73 71 73 73 73 73 71 75 72 72 70 64 64 67 68 68 68 68 69 72 72 75 75
68 72 74 75 77 75 74 72 72 71 70 66 67 70 73 72 74 75 75 75 76 73 70 75 72 72 69 74 73 71 68 60 66 67 69 66 68 64 66 71 74 75 74
65 70 74 75 76 76 77 72 74 67 66 64 66 67 70 73 73 74 76 75 76 77 74 71 75 73 71 67 74 70 70 68 69 66 66 69 67 69 72 68 69 74 73
64 67 71 75 76 76 76 74 72 71 66 65 65 73 73 75 73 71 73 74 74 74 74 75 75 74 75 74 73 73 71 68 72 64 68 63 68 68 66 69 68 72 74
65 66 68 75 76 77 76 77 76 74 72 66 68 66 67 67 69 73 72 74 74 74 73 73 74 74 74 74 74 73 70 68 67 70 65 64 63 69 68 65 71 70 73
Lifted_Index
-5 -6 -7 -7 -7 -7 -7 -7 -7 -7 -7 -6 -6 -6 -6 -5 -5 -5 -4 -4 -4 -4 -3 -3 -3 -3 -3 -3 -3 -3 -3 -3 -3 -3 -3 -2 -2 -2 -2 -2 -1 -1 -2
-6 -6 -7 -7 -7 -7 -7 -7 -7 -7 -7 -7 -6 -6 -6 -5 -5 -5 -5 -5 -4 -4 -4 -3 -3 -3 -3 -3 -3 -3 -3 -2 -2 -3 -2 -2 -2 -2 -1 -1 -1 -1 -2
-6 -6 -7 -7 -7 -7 -7 -7 -7 -7 -7 -7 -7 -6 -6 -6 -5 -5 -5 -5 -4 -4 -4 -4 -3 -3 -3 -3 -3 -3 -2 -2 -2 -3 -2 -1 -1 -2 -2 -1 -1 -2 -2
-5 -6 -6 -7 -8 -7 -7 -7 -7 -7 -7 -7 -7 -7 -7 -6 -6 -5 -5 -5 -5 -4 -4 -4 -3 -3 -3 -3 -3 -2 -2 -2 -2 -2 -1 0 -0 -2 -2 -2 -2 -2 -2
-5 -5 -6 -7 -7 -7 -7 -7 -7 -7 -6 -6 -6 -7 -7 -7 -6 -5 -5 -5 -4 -4 -4 -4 -3 -3 -3 -3 -3 -2 -2 -2 -2 -1 0 1 0 -2 -3 -2 -2 -2 -2
-4 -5 -6 -7 -7 -7 -7 -7 -7 -7 -6 -6 -6 -6 -6 -6 -6 -5 -5 -5 -4 -4 -3 -3 -3 -3 -3 -3 -3 -3 -2 -2 -2 -1 1 1 -1 -2 -2 -2 -1 -2 -2
-4 -4 -5 -6 -7 -7 -7 -7 -7 -7 -6 -6 -6 -5 -6 -6 -6 -5 -5 -5 -4 -3 -3 -3 -3 -3 -3 -3 -3 -2 -2 -2 -1 -0 0 -1 -2 -2 -3 -2 -2 -2 -2
-3 -4 -5 -5 -6 -6 -6 -6 -7 -7 -6 -6 -5 -5 -5 -5 -5 -5 -5 -5 -4 -4 -4 -4 -4 -3 -3 -3 -2 -2 -2 -2 -1 -0 -0 -1 -2 -3 -3 -3 -3 -3 -2
-3 -4 -4 -5 -5 -5 -6 -6 -6 -6 -6 -6 -5 -5 -5 -5 -5 -5 -5 -5 -4 -4 -4 -4 -4 -3 -3 -3 -3 -3 -2 -3 -2 -1 -0 -1 -2 -2 -2 -3 -3 -3 -2
-3 -4 -4 -4 -5 -5 -5 -6 -6 -6 -6 -6 -5 -5 -5 -5 -5 -5 -5 -5 -4 -4 -4 -4 -4 -3 -3 -3 -3 -3 -3 -3 -2 -1 -0 -1 -2 -2 -2 -3 -3 -2 -2
-4 -4 -5 -5 -5 -5 -5 -5 -6 -6 -6 -5 -5 -5 -5 -5 -4 -4 -4 -4 -4 -4 -4 -4 -4 -3 -3 -3 -3 -3 -2 -2 -1 -0 -1 -2 -2 -2 -3 -3 -3 -2 -2
-4 -4 -5 -5 -5 -5 -5 -5 -5 -5 -5 -5 -5 -6 -5 -5 -4 -4 -4 -4 -4 -3 -3 -4 -4 -3 -3 -2 -2 -2 -1 -1 -1 -0 -1 -2 -2 -3 -3 -3 -3 -2 -2
-4 -4 -4 -5 -5 -5 -5 -5 -5 -5 -5 -5 -5 -6 -5 -5 -5 -4 -4 -4 -4 -3 -2 -3 -3 -2 -2 -2 -2 -1 -1 -1 -1 -1 -2 -2 -2 -2 -3 -3 -3 -3 -2
-3 -4 -4 -5 -5 -5 -5 -5 -5 -5 -5 -5 -5 -6 -6 -5 -5 -5 -4 -4 -4 -3 -2 -2 -2 -1 -1 -2 -2 -1 -1 -1 -1 -2 -2 -2 -2 -2 -3 -3 -4 -3 -3
-4 -4 -4 -5 -5 -5 -5 -5 -5 -5 -5 -5 -5 -6 -6 -5 -5 -5 -4 -4 -4 -3 -3 -2 -2 -1 -2 -2 -2 -2 -1 -2 -2 -2 -3 -3 -3 -3 -3 -4 -4 -4 -4
-4 -4 -4 -5 -5 -5 -5 -5 -5 -4 -4 -4 -5 -5 -6 -5 -5 -5 -4 -4 -4 -4 -4 -3 -3 -2 -2 -2 -2 -1 -1 -2 -2 -2 -2 -3 -3 -3 -4 -4 -4 -4 -5
-4 -4 -4 -5 -5 -5 -5 -5 -4 -4 -3 -3 -4 -4 -5 -5 -5 -5 -4 -4 -4 -4 -4 -4 -3 -3 -2 -2 -2 -1 -1 -1 -2 -2 -2 -3 -3 -3 -4 -4 -4 -4 -5
-5 -5 -5 -5 -5 -5 -5 -5 -4 -4 -3 -3 -3 -4 -5 -5 -5 -5 -4 -4 -4 -5 -5 -5 -4 -3 -3 -2 -2 -2 -2 -2 -2 -2 -2 -2 -3 -3 -4 -4 -4 -4 -4
-5 -5 -5 -5 -5 -5 -5 -5 -4 -4 -3 -3 -3 -3 -4 -5 -5 -5 -4 -4 -5 -5 -5 -5 -4 -4 -3 -3 -2 -2 -2 -2 -2 -2 -2 -2 -3 -3 -3 -4 -4 -4 -4
-5 -6 -6 -6 -6 -6 -5 -5 -4 -4 -3 -3 -3 -4 -4 -4 -4 -4 -4 -5 -5 -5 -5 -5 -5 -5 -4 -4 -3 -3 -3 -3 -2 -2 -2 -3 -3 -3 -3 -4 -4 -4 -4
-6 -6 -7 -7 -7 -6 -5 -5 -4 -4 -4 -4 -4 -4 -4 -4 -4 -4 -4 -4 -5 -5 -5 -5 -5 -5 -5 -5 -4 -4 -3 -3 -3 -3 -3 -3 -3 -3 -4 -4 -4 -4 -4
-6 -6 -7 -7 -7 -7 -5 -5 -4 -4 -4 -4 -4 -4 -4 -4 -4 -4 -4 -5 -5 -5 -5 -5 -5 -5 -5 -5 -4 -4 -3 -3 -3 -3 -3 -3 -3 -3 -3 -4 -4 -5 -5
-6 -7 -7 -7 -8 -7 -6 -6 -5 -4 -4 -4 -4 -4 -4 -4 -4 -4 -5 -5 -5 -4 -4 -4 -5 -4 -4 -4 -4 -4 -3 -3 -3 -3 -3 -3 -3 -3 -3 -4 -4 -4 -4
-6 -7 -7 -8 -8 -8 -7 -6 -5 -5 -4 -3 -3 -4 -4 -4 -4 -4 -5 -5 -5 -5 -4 -5 -5 -5 -4 -4 -4 -4 -3 -3 -3 -3 -3 -3 -3 -3 -3 -3 -3 -4 -4
-6 -7 -7 -8 -8 -8 -8 -7 -6 -5 -4 -3 -3 -4 -4 -4 -4 -5 -5 -5 -5 -5 -5 -5 -5 -5 -5 -4 -4 -4 -3 -3 -3 -3 -3 -3 -3 -3 -3 -3 -3 -4 -4
-6 -7 -7 -8 -8 -8 -8 -8 -7 -6 -5 -3 -3 -4 -4 -4 -4 -5 -5 -5 -5 -5 -5 -5 -5 -5 -5 -5 -5 -4 -3 -3 -2 -2 -2 -2 -2 -3 -2 -2 -3 -3 -4